Temp
67 67 66 66 67 68 68 68 68 68 68 67 67 66 63 61 55 52 47 48 51 53 55 53 55 56 56 55 55 54 54 50 45 47 49 50 48 48 50 53 55 55 55 56 55 54 53 53 53 52 52 52 51 50 50 49 49 48 48 48 48 48 48 48 48 47 47 47 48 48 48 48 49 49
67 66 66 65 65 66 66 66 67 67 67 66 66 65 64 62 58 56 52 52 54 54 55 56 55 53 55 54 52 52 52 46 45 45 46 47 48 47 48 51 53 53 54 55 55 54 53 53 52 52 51 51 51 50 49 49 48 48 48 48 48 47 47 47 46 46 46 47 47 47 47 48 48 48
65 65 64 65 64 65 65 65 65 65 65 64 65 64 63 62 61 58 56 51 53 59 55 56 59 54 53 53 51 50 50 46 46 47 47 48 47 44 47 48 51 53 54 54 53 53 53 53 52 51 51 51 50 50 49 48 48 47 47 47 46 46 46 45 45 45 46 46 46 46 47 47 47 48
64 64 63 63 63 64 63 62 63 63 63 63 62 62 62 61 60 58 56 53 52 56 58 57 58 56 53 52 49 49 48 45 44 47 47 48 44 44 48 46 49 51 52 51 51 52 52 52 52 51 51 50 50 49 49 48 47 47 46 45 45 44 44 44 44 45 45 45 45 45 46 46 46 47
63 62 62 62 62 63 62 61 60 61 62 62 61 61 60 59 59 58 55 53 52 52 49 52 51 51 51 47 48 45 44 44 45 44 45 46 45 46 47 47 45 47 49 50 50 51 50 50 50 50 50 50 49 48 47 47 46 45 44 43 43 43 43 44 44 44 44 44 44 44 45 45 45 46
62 61 60 60 61 61 60 60 59 59 59 59 58 57 56 57 56 58 56 54 52 51 44 44 46 46 49 43 46 43 40 39 39 42 43 44 46 46 47 46 45 45 47 49 49 49 49 49 48 48 48 48 47 46 46 45 44 43 42 42 41 41 42 42 42 42 42 42 43 43 44 44 44 45
62 60 58 58 59 59 57 57 58 58 57 57 56 56 56 55 55 55 55 54 51 51 45 42 41 40 41 42 41 42 42 42 42 41 41 42 44 45 46 45 44 45 46 48 48 48 48 47 47 46 46 45 45 44 44 43 43 42 41 41 40 40 40 41 41 41 41 41 41 42 42 43 43 43
60 59 57 57 57 57 56 56 56 56 56 56 56 56 56 55 55 55 54 54 53 51 49 38 40 39 39 40 42 43 43 40 40 40 40 41 41 41 42 43 42 43 45 46 46 47 47 46 46 45 45 44 44 43 43 42 41 41 40 40 39 39 39 39 40 40 40 40 40 41 41 42 42 42
60 59 57 57 56 56 55 55 55 55 55 56 55 55 55 54 54 54 54 53 53 50 48 38 38 39 39 38 40 41 39 38 39 39 39 39 39 39 39 40 40 42 44 44 44 45 45 45 45 45 44 43 43 42 42 41 40 39 39 38 38 38 38 39 39 39 39 39 39 40 40 41 41 41
60 58 57 57 57 56 55 55 55 55 55 55 54 54 54 53 52 51 49 49 47 47 44 38 35 36 37 37 38 39 40 37 36 36 36 36 37 37 36 37 37 38 39 39 41 42 43 43 44 44 43 43 42 42 41 40 39 39 38 38 38 38 38 38 38 38 38 38 38 39 39 40 40 40
59 59 58 57 57 57 56 56 55 55 55 54 54 53 53 52 49 47 46 45 45 45 42 38 38 38 38 38 35 38 39 39 37 35 34 33 36 36 36 34 36 35 37 39 40 40 40 40 41 42 42 42 42 41 40 39 39 38 37 37 37 37 38 38 38 38 38 37 38 38 38 38 39 39
58 58 58 57 57 57 57 57 56 56 55 54 53 53 52 50 48 47 45 44 44 43 42 41 39 39 38 37 37 37 37 36 36 36 35 33 33 33 35 36 34 34 36 35 36 37 37 37 39 40 40 40 40 40 38 38 37 36 36 36 37 37 37 38 37 37 37 37 37 38 38 38 37 38
57 57 57 57 57 56 49 49 50 50 50 54 52 50 49 47 46 46 44 44 43 41 41 38 37 36 36 37 34 34 34 34 36 36 36 36 35 33 33 34 37 36 34 36 36 35 34 33 33 33 32 33 36 36 37 36 36 36 36 36 37 37 37 37 37 36 36 37 37 37 37 37 37 37
55 56 56 55 47 46 45 45 45 46 47 47 52 53 48 46 45 44 43 42 42 42 40 40 37 36 36 36 36 35 37 38 39 36 35 35 35 33 32 34 34 36 35 34 34 35 35 34 33 33 32 34 34 33 33 32 34 35 36 37 37 37 37 37 36 36 36 36 36 37 36 36 36 36
52 52 52 55 48 44 44 45 44 45 45 45 45 46 45 45 47 43 41 42 43 42 41 42 41 40 40 39 39 38 38 37 38 36 35 35 35 33 32 31 33 36 36 34 34 33 33 34 32 32 32 32 31 32 32 36 36 36 37 36 36 36 36 36 36 36 36 36 36 36 36 35 36 36
52 51 50 50 52 50 48 48 47 44 43 43 43 44 43 43 44 45 45 43 41 41 42 41 42 42 42 42 40 40 39 38 38 37 36 36 35 35 34 35 34 35 38 35 33 33 30 33 32 31 32 32 33 33 35 38 38 37 36 36 36 36 36 35 35 35 35 35 35 35 35 35 35 35
52 49 48 47 47 50 41 43 47 47 45 41 41 42 41 41 43 44 45 45 47 46 43 41 42 44 44 43 42 41 41 40 37 36 35 35 36 37 36 37 37 33 37 35 33 32 29 31 31 31 31 32 31 33 37 38 38 37 36 36 35 35 35 35 35 35 34 34 34 34 34 34 34 34
50 50 49 49 47 45 44 44 44 44 44 43 41 41 42 42 41 41 42 42 42 44 46 45 44 46 47 45 45 42 41 38 37 36 35 36 36 36 37 37 36 33 37 35 33 31 29 29 30 29 30 32 31 29 34 38 37 36 36 35 35 35 35 34 34 34 34 34 33 33 33 33 33 33
49 49 50 48 48 46 44 43 43 43 43 42 41 40 40 41 42 42 43 43 43 43 45 46 47 47 47 47 46 42 42 41 39 40 38 37 37 37 34 32 32 32 35 37 34 30 29 29 29 29 31 29 29 27 34 36 36 35 35 35 35 35 34 34 33 33 33 32 32 33 33 33 33 33
48 48 48 47 47 46 45 41 41 42 43 42 39 38 38 39 40 41 41 42 43 43 44 45 45 45 45 45 45 42 42 41 40 39 38 38 37 36 35 35 30 31 32 32 33 32 25 28 29 29 27 29 27 26 25 34 35 35 34 35 35 35 33 33 32 32 31 31 32 32 32 32 32 32
47 46 46 46 46 46 45 43 42 42 42 41 38 38 37 37 38 38 38 40 41 42 42 43 43 44 44 45 44 43 43 41 40 38 37 35 36 35 33 35 33 31 29 29 29 31 27 26 28 26 24 25 27 25 25 25 33 34 33 34 35 34 32 31 31 30 31 31 31 31 31 32 32 31
45 44 40 41 46 45 45 42 41 42 41 41 38 38 37 36 37 37 37 37 38 39 40 40 40 40 42 43 43 43 43 42 40 39 37 37 37 35 36 35 36 32 28 29 30 28 29 26 28 26 23 25 26 24 23 22 24 31 32 35 35 33 31 30 30 30 30 30 30 30 31 31 31 26
43 43 39 38 41 44 44 43 42 41 41 41 38 38 37 37 36 38 37 36 36 35 35 36 37 37 38 40 40 40 41 40 39 41 40 38 38 36 37 37 36 31 30 30 30 32 27 26 28 27 23 22 23 24 22 21 22 25 26 27 27 31 29 29 29 29 29 29 29 30 30 30 30 24
41 40 41 39 39 42 43 43 42 41 41 41 39 39 39 38 38 39 37 37 37 36 37 36 36 36 36 37 37 37 38 38 38 39 39 39 38 38 38 38 38 35 33 29 31 33 28 29 27 30 28 27 22 19 22 22 21 23 23 22 21 27 28 28 28 29 29 29 29 29 30 30 30 23
43 41 40 41 39 40 41 42 41 41 41 41 40 40 40 41 41 39 38 36 35 36 35 35 36 36 36 36 37 37 37 37 37 38 39 39 39 39 39 38 38 38 29 26 34 34 27 30 26 26 24 26 23 19 20 21 21 21 22 22 20 21 21 21 24 21 27 28 29 29 29 29 29 27
43 43 42 41 39 39 40 40 41 41 41 41 39 40 42 42 41 38 38 37 36 36 36 36 36 36 36 36 36 36 36 36 36 37 37 36 37 35 32 33 36 37 31 28 35 33 29 27 27 26 24 25 24 24 19 19 19 20 21 20 19 20 19 19 21 20 20 19 19 24 26 29 29 29
44 44 44 42 38 38 38 40 40 41 41 39 39 41 41 41 39 38 38 36 36 36 35 35 35 35 35 35 35 35 35 36 35 36 33 30 29 27 25 24 25 27 27 28 32 30 29 25 28 28 27 26 25 23 23 19 17 19 19 18 18 18 19 18 19 19 20 19 18 27 27 28 28 28
45 43 42 40 38 38 38 39 40 40 39 38 40 40 40 39 37 37 36 36 36 35 35 34 34 34 35 36 36 35 36 35 33 28 27 25 24 24 23 23 25 26 26 27 29 27 28 27 27 26 28 29 26 23 21 23 21 19 20 21 19 18 19 19 19 19 20 20 18 21 19 19 22 21
44 42 41 41 39 38 38 38 39 39 38 39 39 39 38 36 37 36 36 36 35 35 34 35 35 35 36 37 37 35 31 28 26 25 23 23 22 21 22 22 22 23 24 25 24 24 25 27 26 24 25 26 25 24 25 21 20 20 21 20 17 18 18 20 17 16 19 18 18 18 18 18 17 19
40 41 40 39 38 37 37 37 37 37 37 37 37 37 36 36 37 36 36 35 35 35 35 35 35 36 36 33 29 29 28 28 26 25 24 23 23 23 24 22 20 20 20 22 23 23 24 23 23 24 23 22 22 21 21 23 22 21 20 18 18 21 18 16 17 18 18 16 16 16 19 19 20 20
39 39 38 39 38 38 37 36 36 36 36 36 36 36 36 37 37 37 37 36 36 36 36 35 36 36 32 28 28 28 28 28 27 26 26 25 25 27 26 22 19 18 18 19 20 21 21 21 21 20 22 19 20 18 19 21 21 19 19 19 19 14 15 16 16 15 13 14 13 16 19 20 19 21
39 38 36 35 35 35 34 35 35 35 36 36 36 36 36 36 36 36 35 35 37 38 38 37 35 29 28 28 28 29 29 27 27 27 27 26 26 27 26 23 20 18 17 18 18 20 21 20 19 21 21 19 17 17 17 16 16 17 17 18 18 18 18 14 14 13 13 12 12 14 16 17 18 18
36 35 35 35 34 34 34 34 34 35 35 35 35 35 35 35 35 35 35 35 35 36 36 33 30 29 29 29 29 29 28 26 26 28 27 27 26 27 27 25 21 19 17 17 17 17 18 17 18 17 17 16 16 18 18 15 16 16 16 16 16 15 15 15 13 9 9 12 11 12 13 14 18 19
36 35 35 34 34 34 34 33 34 34 34 34 34 34 34 34 34 34 34 35 36 36 35 34 31 30 30 28 28 28 26 25 26 27 27 25 26 26 26 25 23 23 20 18 17 17 16 15 15 16 15 15 12 12 16 16 16 17 16 15 15 14 15 13 9 6 8 10 10 9 10 12 16 17
36 35 35 35 35 35 35 35 35 35 34 34 33 33 34 34 33 33 34 35 35 34 34 33 32 31 29 28 28 27 25 24 25 26 26 26 26 25 26 26 24 23 20 18 17 17 16 15 15 14 13 12 13 13 18 16 16 17 16 15 13 13 11 12 10 8 8 9 11 8 8 11 12 15
36 36 35 35 35 35 35 35 35 35 35 35 34 34 33 32 33 32 33 34 34 34 33 31 30 30 29 28 28 27 25 24 24 24 23 24 24 25 26 26 24 23 21 19 18 17 17 16 16 16 15 14 15 13 11 22 20 16 14 14 12 12 10 8 8 7 8 9 11 10 9 7 9 16
37 37 36 36 36 36 35 36 36 36 35 35 35 35 34 32 33 33 33 33 33 33 32 32 30 30 29 28 27 26 24 23 23 23 22 23 24 25 24 24 23 23 22 20 19 17 18 16 17 18 18 17 15 15 13 14 19 22 12 13 12 11 9 9 7 7 9 9 8 11 9 8 7 13
36 37 37 37 37 37 37 37 36 36 35 35 36 35 34 34 34 33 33 32 31 32 31 30 29 29 28 27 26 24 24 24 23 22 22 23 23 23 23 23 22 23 21 19 18 18 19 18 18 18 19 18 17 16 11 11 10 15 21 14 12 11 12 8 9 9 9 11 9 9 10 7 9 10
36 37 37 37 38 38 37 37 37 36 36 35 35 35 34 33 33 32 31 31 31 31 30 30 29 28 27 26 26 24 23 23 22 22 22 22 23 23 23 22 21 22 20 18 19 19 19 18 18 18 18 18 18 15 16 13 10 14 21 23 14 11 11 10 8 10 9 7 8 10 10 13 17 23
36 37 38 38 38 38 38 38 37 37 36 36 36 35 34 33 32 31 30 30 30 30 30 28 28 28 26 27 25 25 24 23 22 22 22 22 23 23 22 22 21 20 19 18 17 18 18 17 18 18 16 16 14 15 15 14 12 13 15 20 23 16 11 10 9 10 7 9 7 8 8 10 7 11
36 36 38 39 39 39 38 38 38 38 37 36 36 35 34 34 32 31 30 30 29 29 28 27 27 26 26 26 25 25 23 22 22 22 22 22 22 22 22 21 20 20 18 17 17 17 18 17 17 19 15 14 15 17 15 12 10 10 9 13 22 23 22 19 11 9 8 8 7 5 4 5 3 7
36 36 38 39 39 39 39 38 38 38 37 36 36 34 33 33 32 31 30 29 29 29 28 27 26 26 25 26 26 25 23 22 22 21 21 21 21 20 20 21 20 20 19 17 17 17 15 15 16 16 14 14 14 12 10 10 8 10 10 12 14 20 21 21 21 20 15 11 5 5 5 6 8 7
36 37 37 38 38 38 38 37 37 37 37 36 35 34 33 32 31 29 29 29 29 28 27 26 26 26 25 26 26 25 24 23 22 21 21 20 20 19 20 20 21 21 20 19 16 14 14 15 15 15 14 14 13 12 10 11 9 9 7 8 8 12 16 19 20 20 20 20 19 15 11 9 6 4
37 37 37 38 38 38 37 37 37 37 36 36 34 33 32 31 30 29 29 29 28 27 27 26 26 26 25 25 25 25 24 23 22 21 20 20 20 20 20 20 20 20 19 15 13 13 14 15 15 15 13 12 12 11 10 10 9 9 8 7 7 7 9 11 11 17 18 20 20 20 21 21 21 21
38 38 37 38 38 38 37 37 36 36 36 35 33 33 32 31 30 29 29 29 28 27 26 26 26 25 25 25 24 23 23 23 22 21 21 20 20 20 20 19 19 19 16 14 13 12 13 13 14 15 14 12 11 10 10 9 8 7 5 3 3 5 6 6 5 6 7 7 17 21 20 20 20 20
MSLP
1012.95 1013.03 1013.19 1013.15 1013.11 1013.03 1013.07 1013.07 1013.03 1012.99 1013.27 1013.47 1013.51 1013.83 1014.27 1014.63 1015.27 1015.27 1015.67 1016.03 1015.67 1015.55 1015.83 1015.95 1015.75 1015.99 1016.23 1016.51 1016.79 1017.07 1017.35 1017.79 1018.19 1018.55 1018.79 1018.91 1019.07 1019.27 1019.43 1019.55 1019.63 1019.79 1020.11 1020.35 1020.63 1020.99 1021.27 1021.51 1021.71 1021.83 1021.87 1021.95 1022.19 1022.39 1022.55 1022.67 1022.71 1022.75 1022.71 1022.67 1022.67 1022.63 1022.59 1022.59 1022.51 1022.43 1022.27 1022.11 1021.95 1021.79 1021.63 1021.47 1021.27 1021.03
1012.55 1012.59 1012.75 1012.83 1012.83 1012.75 1012.83 1012.83 1012.75 1012.83 1013.03 1013.27 1013.31 1013.51 1013.67 1014.03 1014.47 1014.47 1014.71 1014.39 1014.79 1014.83 1015.27 1015.31 1015.27 1015.83 1015.91 1016.19 1016.51 1016.75 1017.11 1017.39 1017.67 1017.95 1018.11 1018.27 1018.31 1018.63 1018.95 1019.19 1019.43 1019.67 1019.91 1020.15 1020.39 1020.67 1020.95 1021.19 1021.43 1021.55 1021.67 1021.75 1021.95 1022.19 1022.31 1022.43 1022.51 1022.51 1022.51 1022.51 1022.55 1022.55 1022.51 1022.47 1022.43 1022.35 1022.15 1022.03 1021.87 1021.75 1021.63 1021.43 1021.19 1020.99
1012.23 1012.23 1012.35 1012.39 1012.43 1012.39 1012.55 1012.67 1012.67 1012.71 1012.87 1013.03 1013.19 1013.31 1013.47 1013.63 1013.83 1014.03 1014.19 1014.35 1013.79 1013.95 1014.55 1014.79 1014.59 1015.19 1015.59 1015.91 1016.23 1016.59 1016.79 1017.03 1017.19 1017.43 1017.59 1017.63 1017.83 1018.19 1018.59 1019.03 1019.43 1019.67 1019.83 1019.99 1020.15 1020.35 1020.59 1020.83 1021.07 1021.27 1021.39 1021.51 1021.67 1021.87 1022.07 1022.19 1022.31 1022.31 1022.31 1022.39 1022.47 1022.43 1022.43 1022.39 1022.35 1022.19 1022.07 1021.95 1021.87 1021.75 1021.59 1021.39 1021.15 1020.87
1011.79 1011.87 1011.91 1011.95 1011.95 1012.07 1012.27 1012.43 1012.55 1012.63 1012.75 1012.91 1013.07 1013.15 1013.31 1013.39 1013.51 1013.71 1013.99 1013.91 1013.75 1013.75 1013.79 1014.03 1014.31 1014.67 1015.27 1015.71 1016.07 1016.31 1016.55 1016.87 1017.07 1017.27 1017.39 1017.39 1017.59 1017.95 1018.27 1018.71 1018.99 1019.19 1019.39 1019.59 1019.83 1020.03 1020.19 1020.39 1020.63 1020.87 1021.07 1021.19 1021.35 1021.55 1021.75 1021.91 1021.99 1022.03 1022.15 1022.31 1022.35 1022.31 1022.31 1022.27 1022.19 1022.11 1022.03 1021.95 1021.87 1021.75 1021.55 1021.31 1021.07 1020.79
1011.35 1011.43 1011.47 1011.55 1011.63 1011.75 1011.95 1012.07 1012.27 1012.39 1012.43 1012.67 1012.83 1012.95 1013.03 1013.15 1013.23 1013.47 1013.63 1013.59 1013.51 1013.75 1014.23 1014.15 1014.55 1014.95 1015.15 1015.79 1015.87 1016.23 1016.59 1016.87 1016.99 1017.07 1017.23 1017.39 1017.35 1017.35 1017.59 1017.99 1018.35 1018.59 1018.91 1019.19 1019.43 1019.67 1019.87 1020.11 1020.35 1020.59 1020.79 1020.95 1021.07 1021.27 1021.47 1021.63 1021.71 1021.87 1022.07 1022.19 1022.19 1022.19 1022.19 1022.11 1022.07 1022.03 1022.03 1021.95 1021.83 1021.71 1021.47 1021.19 1020.95 1020.63
1010.83 1010.99 1011.15 1011.19 1011.35 1011.39 1011.59 1011.75 1011.91 1012.03 1012.27 1012.39 1012.59 1012.71 1012.87 1012.91 1013.03 1013.07 1013.27 1013.23 1013.47 1013.35 1014.27 1014.71 1015.19 1015.11 1015.15 1015.39 1015.79 1015.91 1016.43 1016.71 1016.91 1017.03 1017.15 1017.35 1017.27 1016.95 1016.91 1017.27 1017.67 1018.07 1018.55 1018.87 1019.07 1019.31 1019.59 1019.95 1020.31 1020.55 1020.71 1020.79 1020.91 1021.07 1021.23 1021.39 1021.51 1021.71 1021.91 1021.99 1022.03 1022.07 1022.07 1022.03 1022.03 1022.03 1021.99 1021.91 1021.79 1021.59 1021.35 1021.07 1020.79 1020.51
1010.43 1010.63 1010.75 1010.83 1010.99 1011.15 1011.39 1011.47 1011.59 1011.75 1011.87 1012.03 1012.19 1012.27 1012.47 1012.47 1012.51 1012.67 1012.79 1012.95 1012.99 1013.15 1013.47 1014.51 1014.83 1015.19 1015.27 1015.23 1015.67 1015.83 1016.07 1016.35 1016.67 1017.03 1017.23 1017.35 1017.43 1017.15 1016.79 1016.83 1017.19 1017.63 1018.11 1018.55 1018.91 1019.27 1019.59 1019.91 1020.19 1020.39 1020.55 1020.71 1020.79 1020.91 1021.07 1021.19 1021.35 1021.55 1021.67 1021.75 1021.83 1021.91 1021.95 1021.95 1021.95 1021.91 1021.91 1021.83 1021.67 1021.43 1021.19 1020.91 1020.59 1020.39
1009.99 1010.07 1010.35 1010.47 1010.67 1010.83 1011.07 1011.15 1011.35 1011.39 1011.47 1011.59 1011.67 1011.79 1011.87 1011.99 1012.07 1012.23 1012.47 1012.51 1012.63 1012.75 1012.83 1014.55 1014.43 1015.15 1015.15 1015.43 1015.59 1015.79 1016.07 1016.39 1016.79 1017.03 1017.35 1017.59 1017.67 1017.35 1016.91 1016.75 1016.95 1017.27 1017.79 1018.31 1018.75 1019.11 1019.39 1019.67 1019.87 1020.07 1020.27 1020.47 1020.63 1020.79 1020.95 1021.11 1021.27 1021.39 1021.51 1021.59 1021.71 1021.75 1021.79 1021.83 1021.83 1021.83 1021.79 1021.71 1021.51 1021.27 1020.99 1020.67 1020.43 1020.23
1009.43 1009.59 1009.79 1009.99 1010.31 1010.47 1010.59 1010.67 1010.79 1010.87 1010.99 1011.07 1011.19 1011.27 1011.43 1011.59 1011.67 1011.87 1011.99 1012.11 1012.31 1012.39 1012.51 1013.99 1015.15 1015.15 1015.35 1015.63 1015.75 1015.91 1016.15 1016.63 1016.83 1017.07 1017.43 1017.71 1017.83 1017.71 1017.35 1017.11 1017.07 1017.15 1017.51 1017.95 1018.39 1018.79 1019.11 1019.35 1019.59 1019.79 1020.03 1020.31 1020.55 1020.75 1020.91 1021.07 1021.23 1021.35 1021.43 1021.51 1021.59 1021.63 1021.63 1021.67 1021.67 1021.67 1021.59 1021.51 1021.31 1021.07 1020.79 1020.47 1020.27 1020.07
1008.91 1009.11 1009.27 1009.47 1009.71 1009.91 1009.99 1010.07 1010.23 1010.35 1010.47 1010.63 1010.75 1010.87 1011.03 1011.19 1011.39 1011.51 1011.67 1011.87 1012.11 1012.23 1012.43 1013.35 1014.55 1015.39 1015.11 1015.63 1015.91 1015.91 1016.07 1016.43 1016.87 1017.27 1017.59 1017.83 1017.95 1017.91 1017.71 1017.51 1017.47 1017.43 1017.51 1017.75 1018.07 1018.35 1018.71 1019.03 1019.35 1019.63 1019.95 1020.23 1020.47 1020.67 1020.87 1021.07 1021.23 1021.31 1021.35 1021.39 1021.47 1021.47 1021.51 1021.51 1021.51 1021.47 1021.39 1021.27 1021.11 1020.83 1020.55 1020.35 1020.15 1019.95
1008.47 1008.55 1008.71 1008.87 1008.99 1009.15 1009.23 1009.39 1009.55 1009.75 1009.99 1010.11 1010.23 1010.43 1010.63 1010.91 1011.19 1011.39 1011.55 1011.87 1012.11 1012.19 1012.51 1013.47 1013.67 1014.31 1015.11 1015.15 1015.67 1015.99 1016.11 1016.47 1016.51 1016.79 1017.59 1017.95 1017.87 1017.83 1017.63 1017.67 1017.67 1017.67 1017.71 1017.75 1017.79 1017.95 1018.31 1018.75 1019.19 1019.55 1019.87 1020.11 1020.31 1020.51 1020.71 1020.91 1021.11 1021.23 1021.31 1021.35 1021.35 1021.35 1021.35 1021.35 1021.31 1021.27 1021.15 1021.07 1020.87 1020.63 1020.39 1020.23 1020.07 1019.87
1007.99 1008.03 1008.11 1008.23 1008.35 1008.43 1008.51 1008.71 1008.87 1009.15 1009.35 1009.59 1009.75 1009.95 1010.19 1010.51 1010.83 1011.03 1011.27 1011.59 1011.87 1012.15 1012.51 1012.75 1013.47 1014.11 1014.67 1015.39 1015.71 1016.03 1016.31 1016.67 1016.83 1016.63 1016.63 1016.91 1017.27 1017.43 1017.39 1017.39 1017.55 1017.71 1017.75 1017.83 1017.91 1018.03 1018.27 1018.63 1019.03 1019.43 1019.71 1019.91 1020.07 1020.23 1020.43 1020.67 1020.91 1021.15 1021.23 1021.27 1021.31 1021.27 1021.23 1021.19 1021.15 1021.07 1020.99 1020.87 1020.67 1020.47 1020.31 1020.15 1019.99 1019.83
1007.51 1007.55 1007.55 1007.63 1007.71 1007.83 1007.95 1008.07 1008.23 1008.43 1008.63 1008.95 1009.23 1009.51 1009.91 1010.19 1010.47 1010.67 1010.99 1011.27 1011.63 1012.07 1012.47 1012.91 1013.51 1014.11 1014.47 1014.87 1015.47 1015.99 1016.07 1015.71 1014.99 1015.63 1016.27 1016.35 1016.59 1017.11 1017.43 1017.35 1017.31 1017.39 1017.55 1017.55 1017.75 1017.95 1018.11 1018.51 1018.87 1019.19 1019.47 1019.63 1019.83 1019.95 1020.11 1020.39 1020.67 1020.91 1021.07 1021.15 1021.23 1021.23 1021.19 1021.11 1021.07 1020.99 1020.87 1020.71 1020.59 1020.43 1020.27 1020.11 1019.95 1019.75
1006.99 1006.95 1007.03 1007.07 1007.23 1007.39 1007.55 1007.75 1007.87 1007.99 1008.15 1008.23 1008.35 1008.67 1009.35 1009.71 1010.03 1010.23 1010.55 1010.91 1011.23 1011.71 1012.19 1012.51 1013.23 1013.71 1013.95 1014.23 1014.47 1014.51 1014.47 1014.67 1014.95 1015.43 1015.99 1016.23 1016.27 1016.99 1017.23 1017.23 1017.11 1017.15 1017.35 1017.51 1017.55 1017.51 1017.71 1018.03 1018.43 1018.67 1018.95 1019.07 1019.39 1019.63 1019.83 1020.07 1020.35 1020.59 1020.79 1020.95 1021.07 1021.15 1021.15 1021.15 1021.07 1020.95 1020.79 1020.67 1020.55 1020.43 1020.27 1020.07 1019.87 1019.67
1006.55 1006.63 1006.67 1006.71 1006.79 1006.99 1007.11 1007.27 1007.35 1007.55 1007.67 1007.83 1007.95 1008.15 1008.43 1008.75 1009.15 1009.83 1010.31 1010.51 1010.71 1011.15 1011.47 1011.79 1012.35 1012.43 1012.67 1013.15 1013.67 1013.91 1014.03 1014.39 1014.43 1014.71 1015.35 1015.67 1016.11 1016.47 1016.75 1016.63 1016.31 1016.63 1016.83 1017.03 1017.15 1017.23 1017.35 1017.63 1017.95 1018.19 1018.43 1018.75 1019.15 1019.35 1019.47 1019.67 1019.95 1020.19 1020.43 1020.63 1020.83 1021.03 1021.11 1021.15 1021.15 1020.99 1020.83 1020.71 1020.55 1020.43 1020.27 1020.03 1019.79 1019.55
1006.07 1006.19 1006.35 1006.39 1006.43 1006.59 1006.75 1006.99 1007.19 1007.35 1007.43 1007.55 1007.71 1007.91 1008.11 1008.39 1008.55 1008.59 1008.91 1009.71 1010.43 1010.59 1010.99 1011.35 1011.39 1011.63 1011.79 1012.11 1012.87 1013.31 1013.59 1013.83 1014.19 1014.43 1014.87 1015.19 1015.35 1015.71 1015.83 1015.39 1015.19 1015.23 1015.95 1016.51 1016.75 1016.79 1017.35 1017.47 1017.71 1017.91 1018.11 1018.43 1018.75 1018.99 1019.11 1019.23 1019.43 1019.71 1020.03 1020.27 1020.51 1020.75 1020.95 1021.11 1021.11 1020.99 1020.87 1020.75 1020.59 1020.39 1020.19 1019.95 1019.71 1019.47
1005.63 1005.83 1006.03 1006.19 1006.35 1006.31 1006.47 1006.63 1006.79 1006.95 1007.11 1007.31 1007.47 1007.59 1007.83 1008.03 1008.19 1008.47 1008.51 1008.43 1008.59 1009.39 1010.07 1010.43 1010.79 1010.83 1011.03 1011.47 1011.79 1012.07 1012.31 1012.91 1013.67 1014.31 1014.83 1014.95 1014.99 1014.91 1015.03 1014.87 1014.75 1015.51 1015.63 1016.27 1016.67 1016.67 1017.27 1017.39 1017.55 1017.71 1017.83 1018.11 1018.39 1018.59 1018.71 1018.79 1019.03 1019.35 1019.59 1019.83 1020.11 1020.43 1020.75 1020.99 1021.07 1020.95 1020.87 1020.75 1020.55 1020.35 1020.15 1019.87 1019.63 1019.35
1005.31 1005.43 1005.51 1005.59 1005.83 1006.19 1006.35 1006.47 1006.63 1006.79 1006.91 1007.11 1007.43 1007.67 1007.83 1007.95 1008.15 1008.43 1008.51 1008.59 1008.63 1008.79 1009.07 1009.55 1009.83 1009.91 1010.11 1010.19 1010.31 1011.11 1011.91 1012.67 1013.11 1013.67 1013.95 1014.19 1014.43 1014.47 1014.23 1014.43 1014.79 1015.63 1015.71 1015.87 1016.11 1016.55 1017.11 1017.39 1017.35 1017.55 1017.59 1017.75 1018.07 1018.31 1018.43 1018.59 1018.83 1019.03 1019.19 1019.43 1019.71 1020.07 1020.47 1020.75 1020.87 1020.87 1020.83 1020.71 1020.55 1020.31 1020.07 1019.79 1019.51 1019.27
1004.99 1005.07 1005.15 1005.23 1005.31 1005.63 1005.95 1006.11 1006.23 1006.43 1006.63 1006.87 1006.99 1007.27 1007.55 1007.67 1007.71 1007.99 1008.23 1008.43 1008.63 1008.79 1008.79 1008.91 1008.95 1009.23 1009.43 1009.55 1009.95 1010.75 1011.35 1011.59 1011.87 1012.03 1012.27 1012.71 1013.11 1013.71 1014.55 1015.15 1015.67 1015.99 1015.95 1015.91 1015.91 1016.07 1016.35 1017.11 1017.07 1017.11 1017.23 1017.63 1017.91 1018.15 1018.27 1018.39 1018.59 1018.71 1018.95 1019.15 1019.39 1019.75 1020.15 1020.51 1020.71 1020.75 1020.75 1020.67 1020.51 1020.27 1020.03 1019.71 1019.47 1019.23
1004.63 1004.71 1004.75 1004.83 1004.99 1005.15 1005.35 1005.55 1005.79 1005.91 1006.23 1006.51 1006.63 1006.83 1007.23 1007.59 1007.63 1007.71 1007.71 1007.79 1007.99 1008.23 1008.47 1008.67 1008.87 1008.95 1009.07 1009.23 1009.59 1010.15 1010.75 1011.39 1012.03 1012.39 1012.67 1013.03 1013.51 1013.91 1014.43 1014.59 1015.63 1015.79 1016.03 1015.99 1015.67 1015.35 1016.51 1016.79 1016.59 1016.79 1017.23 1017.51 1017.79 1018.11 1018.27 1018.31 1018.39 1018.59 1018.75 1018.95 1019.15 1019.51 1019.95 1020.31 1020.51 1020.63 1020.71 1020.67 1020.47 1020.23 1019.95 1019.67 1019.39 1019.15
1004.27 1004.35 1004.43 1004.55 1004.63 1004.75 1004.83 1005.03 1005.31 1005.55 1005.87 1006.07 1006.23 1006.55 1006.99 1007.31 1007.43 1007.51 1007.71 1007.83 1007.99 1008.19 1008.35 1008.55 1008.75 1008.83 1008.87 1008.99 1009.23 1009.71 1010.27 1010.91 1011.55 1012.15 1012.63 1012.95 1013.23 1013.71 1014.15 1014.23 1014.91 1015.19 1015.87 1015.99 1015.83 1015.07 1015.91 1016.67 1016.31 1016.95 1017.39 1017.39 1017.59 1017.99 1018.15 1018.31 1018.39 1018.51 1018.67 1018.79 1018.95 1019.31 1019.79 1020.15 1020.43 1020.59 1020.67 1020.59 1020.47 1020.19 1019.91 1019.63 1019.35 1019.11
1003.95 1003.95 1004.03 1004.19 1004.23 1004.27 1004.39 1004.67 1004.95 1005.15 1005.31 1005.47 1005.83 1006.27 1006.67 1007.11 1007.23 1007.31 1007.67 1007.95 1008.11 1008.27 1008.39 1008.55 1008.75 1008.83 1008.83 1008.87 1009.03 1009.35 1009.95 1010.59 1011.11 1011.39 1011.55 1011.95 1012.63 1013.03 1013.11 1013.39 1013.79 1014.63 1015.43 1015.35 1015.55 1015.23 1014.83 1016.31 1016.15 1016.83 1017.55 1017.63 1017.63 1017.83 1018.19 1018.43 1018.55 1018.55 1018.59 1018.63 1018.87 1019.31 1019.75 1020.07 1020.31 1020.51 1020.55 1020.51 1020.39 1020.15 1019.87 1019.59 1019.35 1019.19
1003.83 1003.83 1003.91 1003.95 1003.95 1003.79 1003.83 1004.15 1004.47 1004.91 1004.99 1004.83 1005.35 1005.79 1006.35 1006.51 1006.51 1006.55 1007.23 1007.63 1007.95 1008.23 1008.43 1008.55 1008.71 1008.91 1008.95 1008.99 1009.07 1009.27 1009.67 1010.15 1010.59 1010.63 1010.75 1011.51 1011.91 1012.23 1012.51 1012.75 1013.35 1014.39 1014.55 1014.63 1014.99 1014.55 1015.19 1015.91 1015.75 1015.99 1016.87 1017.11 1017.91 1018.15 1018.27 1018.47 1018.51 1018.55 1018.55 1018.63 1018.95 1019.39 1019.75 1019.95 1020.19 1020.35 1020.43 1020.39 1020.27 1020.03 1019.79 1019.55 1019.31 1019.23
1003.55 1003.75 1003.79 1003.83 1003.79 1003.67 1003.67 1003.75 1003.95 1004.39 1004.59 1004.51 1004.99 1005.43 1005.51 1005.55 1005.47 1006.23 1006.87 1007.03 1007.07 1007.39 1007.55 1007.87 1008.27 1008.55 1008.91 1009.07 1009.07 1009.23 1009.59 1009.99 1010.31 1010.55 1010.83 1011.11 1011.31 1011.47 1011.75 1012.03 1012.11 1012.11 1011.99 1013.67 1014.23 1013.91 1014.47 1014.91 1015.27 1015.43 1015.03 1014.83 1016.31 1018.31 1018.39 1018.47 1018.51 1018.51 1018.63 1018.87 1019.19 1019.39 1019.63 1019.79 1019.95 1020.07 1020.19 1020.23 1020.07 1019.91 1019.71 1019.51 1019.27 1019.19
1002.91 1003.15 1003.39 1003.43 1003.55 1003.67 1003.71 1003.79 1003.87 1003.99 1004.03 1004.15 1004.59 1004.79 1004.63 1004.39 1004.59 1005.59 1006.11 1006.71 1007.03 1007.35 1007.71 1007.99 1008.31 1008.55 1008.83 1008.99 1009.03 1009.11 1009.39 1009.75 1010.15 1010.43 1010.63 1010.83 1011.03 1011.07 1011.23 1011.55 1011.67 1011.59 1011.95 1013.19 1013.31 1013.51 1013.91 1014.43 1015.15 1015.71 1015.71 1015.59 1016.55 1018.03 1018.23 1018.47 1018.55 1018.67 1018.75 1018.91 1019.11 1019.23 1019.43 1019.59 1019.75 1019.91 1019.99 1020.03 1019.91 1019.79 1019.67 1019.47 1019.27 1019.11
1002.35 1002.35 1002.67 1003.03 1003.31 1003.67 1003.79 1003.79 1003.87 1003.91 1003.83 1003.83 1004.23 1004.39 1004.31 1004.47 1004.71 1005.07 1005.43 1006.11 1006.71 1007.19 1007.63 1007.99 1008.23 1008.47 1008.67 1008.87 1008.99 1009.15 1009.31 1009.59 1009.95 1010.27 1010.55 1010.75 1010.91 1011.19 1011.27 1011.11 1011.11 1011.43 1011.51 1012.95 1013.27 1013.31 1013.71 1014.39 1014.83 1015.43 1015.63 1015.55 1016.23 1016.99 1018.19 1018.43 1018.67 1018.75 1018.87 1018.99 1019.07 1019.15 1019.27 1019.47 1019.59 1019.67 1019.83 1019.91 1019.91 1019.79 1019.63 1019.39 1019.23 1019.07
1001.51 1001.75 1001.95 1002.19 1002.67 1003.03 1003.39 1003.59 1003.67 1003.75 1003.75 1003.87 1003.83 1003.91 1004.31 1004.59 1004.75 1005.07 1005.51 1005.99 1006.47 1006.91 1007.31 1007.71 1007.99 1008.19 1008.31 1008.47 1008.67 1008.91 1009.19 1009.47 1009.83 1010.15 1010.63 1011.11 1011.35 1011.75 1012.11 1012.31 1012.27 1012.03 1012.23 1012.75 1013.15 1013.39 1013.43 1014.03 1014.63 1014.47 1014.75 1015.15 1015.75 1016.63 1016.87 1017.75 1018.63 1018.95 1018.99 1019.03 1018.99 1019.07 1019.15 1019.27 1019.39 1019.51 1019.67 1019.75 1019.75 1019.63 1019.51 1019.39 1019.27 1019.11
1001.11 1001.23 1001.43 1001.75 1002.15 1002.47 1002.83 1003.19 1003.47 1003.63 1003.71 1003.67 1003.63 1003.87 1004.11 1004.55 1004.87 1005.15 1005.51 1005.87 1006.11 1006.47 1006.91 1007.23 1007.43 1007.63 1007.75 1007.95 1008.23 1008.55 1008.83 1009.23 1009.75 1010.43 1010.99 1011.47 1011.79 1012.07 1012.43 1012.63 1012.67 1012.75 1012.79 1012.99 1013.27 1013.43 1013.43 1013.87 1014.35 1014.43 1014.51 1014.71 1015.31 1015.91 1016.39 1016.87 1017.99 1018.55 1018.55 1018.63 1018.91 1018.91 1018.91 1019.03 1019.19 1019.35 1019.47 1019.55 1019.59 1019.55 1019.55 1019.51 1019.39 1019.27
1000.83 1000.83 1001.03 1001.35 1001.67 1001.95 1002.27 1002.59 1003.07 1003.43 1003.59 1003.71 1003.71 1003.71 1003.91 1004.27 1004.75 1004.99 1005.27 1005.51 1005.91 1006.23 1006.31 1006.43 1006.71 1007.03 1007.19 1007.27 1007.55 1008.19 1008.91 1009.67 1010.19 1010.71 1011.43 1011.91 1012.31 1012.63 1012.83 1013.15 1013.31 1013.35 1013.39 1013.55 1013.67 1013.75 1013.67 1013.83 1014.19 1014.47 1014.59 1014.79 1014.91 1015.23 1015.59 1016.63 1017.39 1017.71 1017.79 1018.15 1018.51 1018.79 1018.79 1018.87 1019.07 1019.23 1019.35 1019.47 1019.51 1019.55 1019.55 1019.51 1019.43 1019.31
1000.95 1000.79 1000.83 1001.03 1001.31 1001.67 1002.07 1002.51 1002.79 1003.07 1003.39 1003.67 1003.87 1003.99 1004.11 1004.15 1004.23 1004.51 1004.83 1005.15 1005.23 1005.31 1005.59 1005.91 1006.11 1006.43 1006.87 1007.35 1007.91 1008.63 1009.19 1009.59 1010.07 1010.55 1011.27 1011.87 1012.47 1012.59 1012.79 1013.19 1013.87 1014.07 1014.07 1014.11 1014.15 1014.19 1014.19 1014.27 1014.51 1014.63 1014.87 1015.27 1015.39 1015.67 1016.11 1016.51 1017.03 1017.39 1017.71 1017.79 1017.87 1018.35 1018.79 1018.79 1018.87 1018.99 1019.23 1019.51 1019.59 1019.59 1019.51 1019.39 1019.31 1019.19
1000.95 1000.87 1000.87 1000.95 1001.15 1001.43 1001.79 1002.11 1002.39 1002.67 1002.99 1003.43 1003.75 1003.87 1003.95 1003.95 1003.87 1003.95 1004.07 1004.19 1004.43 1004.75 1005.11 1005.43 1005.75 1006.19 1007.03 1007.75 1008.19 1008.63 1008.99 1009.51 1010.03 1010.35 1010.83 1011.39 1011.95 1012.11 1012.51 1012.95 1013.99 1014.39 1014.63 1014.63 1014.71 1014.75 1014.79 1014.83 1014.91 1014.91 1015.07 1015.83 1016.23 1016.51 1016.63 1016.59 1016.87 1017.39 1017.67 1017.79 1018.03 1018.15 1018.55 1018.71 1018.79 1018.99 1019.31 1019.55 1019.63 1019.51 1019.31 1019.23 1019.23 1019.15
1001.03 1001.11 1001.15 1001.19 1001.31 1001.67 1001.99 1002.39 1002.71 1002.91 1003.15 1003.31 1003.47 1003.59 1003.75 1003.83 1003.83 1003.83 1003.95 1004.23 1004.43 1004.27 1004.27 1004.67 1005.43 1006.59 1007.23 1007.63 1007.91 1008.31 1008.75 1009.27 1009.75 1010.15 1010.55 1010.99 1011.55 1011.87 1012.15 1012.67 1013.67 1014.35 1014.79 1015.03 1015.15 1015.19 1015.23 1015.31 1015.31 1015.35 1015.55 1015.91 1016.27 1017.07 1017.27 1017.31 1017.27 1017.35 1017.51 1017.79 1018.03 1018.07 1018.19 1018.59 1018.79 1019.03 1019.35 1019.59 1019.59 1019.35 1019.23 1019.19 1019.23 1019.23
1001.15 1001.31 1001.31 1001.19 1001.19 1001.27 1001.51 1001.91 1002.19 1002.51 1002.87 1003.11 1003.35 1003.63 1003.83 1003.91 1003.91 1003.95 1003.99 1003.95 1004.11 1004.31 1004.51 1004.95 1005.75 1006.47 1006.95 1007.39 1007.71 1008.03 1008.47 1009.03 1009.51 1009.83 1010.31 1010.83 1011.19 1011.67 1011.79 1012.03 1013.03 1013.71 1014.23 1014.99 1015.39 1015.55 1015.67 1015.75 1015.83 1015.99 1016.27 1016.55 1016.79 1017.03 1017.27 1017.59 1017.59 1017.63 1017.75 1017.75 1018.03 1018.15 1018.35 1018.51 1018.83 1019.15 1019.35 1019.39 1019.43 1019.47 1019.39 1019.15 1019.15 1019.23
1000.71 1000.91 1000.91 1000.83 1000.75 1000.87 1000.99 1001.11 1001.39 1001.75 1002.19 1002.63 1003.07 1003.39 1003.75 1003.99 1004.03 1003.95 1003.87 1003.83 1003.91 1004.19 1004.27 1004.59 1005.39 1006.03 1006.43 1006.91 1007.23 1007.51 1007.99 1008.83 1009.31 1009.55 1009.95 1010.59 1010.99 1011.31 1011.39 1011.79 1012.55 1013.03 1013.59 1014.39 1014.99 1015.43 1015.75 1015.95 1016.07 1016.35 1016.63 1017.03 1017.31 1017.39 1017.35 1017.19 1017.23 1017.47 1017.63 1017.83 1018.03 1018.15 1018.39 1018.83 1019.15 1019.27 1019.43 1019.43 1019.63 1019.67 1019.51 1019.35 1019.15 1019.19
1000.11 1000.19 1000.47 1000.55 1000.55 1000.19 1000.19 1000.23 1000.35 1000.79 1001.23 1001.59 1002.07 1002.55 1002.99 1003.39 1003.67 1003.87 1003.87 1003.79 1003.83 1004.07 1004.23 1004.55 1004.99 1005.47 1005.87 1006.23 1006.59 1006.95 1007.59 1008.15 1008.83 1009.39 1009.87 1010.31 1010.79 1010.99 1010.99 1011.15 1011.91 1012.55 1013.27 1014.07 1014.71 1015.15 1015.47 1015.83 1015.99 1016.23 1016.67 1017.03 1017.31 1017.63 1017.71 1017.67 1017.39 1017.31 1017.71 1017.87 1018.11 1018.23 1018.55 1018.87 1019.07 1019.27 1019.39 1019.43 1019.39 1019.59 1019.51 1019.27 1019.35 1019.31
999.51 999.71 999.95 999.95 999.95 999.87 999.67 999.35 999.59 999.87 1000.07 1000.55 1001.03 1001.59 1002.27 1002.63 1002.91 1003.27 1003.47 1003.59 1003.79 1003.99 1004.23 1004.47 1004.83 1005.23 1005.55 1005.91 1006.19 1006.71 1007.27 1007.79 1008.43 1009.03 1009.59 1010.07 1010.43 1010.71 1010.79 1010.91 1011.43 1012.07 1012.83 1013.51 1014.23 1014.79 1015.15 1015.47 1015.47 1015.51 1015.59 1016.23 1016.15 1016.15 1017.15 1017.55 1017.63 1017.67 1017.55 1017.79 1018.23 1018.35 1018.75 1018.95 1018.95 1019.15 1019.27 1019.23 1019.15 1019.35 1019.55 1019.71 1019.75 1019.47
999.03 999.27 999.31 999.23 999.15 999.27 998.91 998.75 998.91 999.07 999.39 999.83 1000.31 1000.63 1000.99 1001.51 1001.95 1002.39 1002.75 1003.23 1003.55 1003.75 1003.79 1003.99 1004.31 1004.71 1005.07 1005.55 1005.95 1006.55 1006.99 1007.43 1008.15 1008.75 1009.27 1009.75 1010.11 1010.35 1010.63 1010.99 1011.35 1011.79 1012.51 1013.27 1013.91 1014.47 1014.79 1015.11 1015.03 1014.83 1014.95 1015.43 1015.71 1015.35 1016.67 1017.91 1017.79 1017.75 1017.95 1017.87 1018.27 1018.39 1018.67 1018.79 1018.83 1018.83 1018.91 1019.23 1019.31 1019.27 1019.63 1019.87 1019.87 1019.59
997.79 997.79 998.15 998.07 998.03 998.15 998.27 998.31 998.43 998.59 998.83 999.07 999.43 999.87 1000.31 1000.71 1001.19 1001.75 1002.35 1002.91 1003.07 1003.31 1003.63 1003.83 1004.07 1004.59 1004.95 1005.27 1005.75 1006.43 1006.95 1007.39 1007.91 1008.51 1008.95 1009.35 1009.79 1010.15 1010.35 1010.71 1011.19 1011.55 1012.23 1013.19 1013.79 1014.23 1014.43 1014.59 1014.55 1014.27 1014.15 1014.39 1014.63 1015.19 1016.71 1017.55 1018.07 1017.79 1017.83 1017.91 1018.07 1018.39 1018.43 1018.35 1018.27 1018.47 1018.71 1018.87 1019.19 1019.43 1019.63 1019.83 1019.79 1019.67
997.43 996.87 996.79 996.95 997.15 997.31 997.59 997.71 997.83 997.95 998.23 998.71 999.03 999.31 999.83 1000.43 1000.91 1001.55 1002.15 1002.51 1002.87 1003.15 1003.35 1003.67 1004.03 1004.43 1004.95 1005.31 1005.59 1005.91 1006.47 1007.19 1007.79 1008.23 1008.63 1009.07 1009.35 1009.71 1010.23 1010.63 1011.11 1011.63 1012.31 1013.15 1013.63 1013.95 1014.15 1014.31 1014.19 1013.95 1013.83 1013.83 1013.79 1014.15 1015.11 1016.59 1017.19 1017.55 1017.71 1017.87 1017.99 1018.11 1018.19 1018.15 1018.03 1018.15 1018.63 1019.03 1019.15 1019.23 1019.31 1019.35 1019.35 1019.23
997.55 997.31 996.79 996.55 996.71 996.87 996.99 997.19 997.39 997.47 997.79 998.03 998.39 998.87 999.39 999.75 1000.15 1000.83 1001.51 1002.07 1002.55 1002.91 1003.11 1003.31 1003.79 1004.31 1004.83 1005.07 1005.39 1005.95 1006.47 1006.75 1007.11 1007.59 1008.15 1008.67 1009.11 1009.43 1009.87 1010.39 1010.79 1011.39 1012.15 1012.79 1013.35 1013.67 1013.87 1013.99 1013.95 1013.87 1013.91 1014.63 1015.35 1015.59 1015.75 1016.39 1017.19 1017.59 1017.79 1017.83 1017.91 1017.91 1017.91 1017.87 1017.99 1018.27 1018.63 1018.95 1019.11 1019.23 1019.39 1019.35 1019.51 1019.19
997.47 997.39 996.87 996.67 996.63 996.59 996.67 996.79 996.87 997.03 997.19 997.47 997.87 998.31 998.75 999.23 999.83 1000.27 1000.59 1001.19 1001.95 1002.55 1002.91 1003.19 1003.59 1004.03 1004.39 1004.63 1005.03 1005.35 1005.95 1006.55 1006.99 1007.47 1007.91 1008.47 1008.95 1009.31 1009.75 1010.23 1010.87 1011.23 1011.79 1012.59 1013.03 1013.47 1013.67 1013.83 1014.11 1014.39 1014.87 1015.31 1015.47 1015.63 1016.03 1016.63 1017.43 1017.87 1017.95 1017.83 1017.83 1017.91 1017.91 1018.03 1018.19 1018.35 1018.63 1018.87 1019.03 1019.19 1019.35 1019.35 1019.43 1019.35
996.55 996.71 996.71 996.75 996.59 996.43 996.43 996.39 996.43 996.63 996.79 996.99 997.19 997.67 998.23 998.79 999.35 999.99 1000.67 1001.11 1001.63 1002.07 1002.31 1002.71 1003.19 1003.59 1003.91 1004.27 1004.67 1005.11 1005.43 1005.83 1006.39 1007.07 1007.59 1008.11 1008.79 1009.43 1009.83 1010.15 1010.59 1011.07 1011.55 1012.15 1012.67 1013.31 1014.19 1014.51 1014.55 1014.75 1015.15 1015.39 1015.51 1015.55 1016.03 1016.39 1016.71 1017.39 1017.91 1018.11 1018.07 1018.03 1018.07 1018.15 1018.27 1018.39 1018.59 1018.91 1019.15 1019.11 1019.03 1018.91 1018.95 1019.23
995.67 995.95 996.19 996.31 996.39 996.39 996.43 996.51 996.51 996.51 996.63 996.83 997.07 997.39 997.91 998.47 999.15 999.83 1000.23 1000.71 1001.23 1001.71 1002.07 1002.59 1003.07 1003.43 1003.71 1004.03 1004.39 1004.71 1005.07 1005.47 1005.95 1006.59 1007.35 1007.91 1008.39 1008.99 1009.59 1010.03 1010.39 1010.79 1011.35 1012.11 1013.23 1014.11 1014.47 1014.63 1014.83 1015.07 1015.27 1015.43 1015.51 1015.55 1015.87 1016.31 1016.63 1017.35 1017.87 1018.11 1018.23 1018.31 1018.31 1018.35 1018.39 1018.47 1018.51 1018.59 1018.71 1018.83 1018.99 1019.19 1019.39 1019.43
994.79 995.11 995.43 995.71 995.87 995.95 996.11 996.27 996.39 996.39 996.47 996.67 996.91 997.27 997.63 998.11 998.63 999.03 999.47 999.95 1000.47 1000.87 1001.51 1002.23 1002.79 1003.19 1003.55 1003.95 1004.31 1004.67 1004.91 1005.19 1005.67 1006.27 1006.99 1007.67 1008.31 1008.87 1009.31 1009.87 1010.43 1010.91 1011.63 1012.71 1013.63 1014.19 1014.59 1014.75 1014.95 1015.11 1015.31 1015.55 1015.67 1015.87 1016.11 1016.31 1016.83 1017.23 1017.51 1017.95 1018.19 1018.43 1018.55 1018.59 1018.59 1018.51 1018.55 1018.59 1018.71 1018.83 1018.87 1018.99 1019.03 1019.11
994.43 994.39 994.67 994.99 995.23 995.39 995.59 995.79 996.03 996.15 996.15 996.27 996.55 996.87 997.27 997.79 998.27 998.79 999.19 999.59 999.91 1000.23 1000.87 1001.63 1002.31 1002.91 1003.35 1003.75 1004.07 1004.47 1004.79 1005.19 1005.71 1006.31 1006.79 1007.55 1008.27 1008.91 1009.39 1009.91 1010.43 1011.03 1011.99 1012.75 1013.39 1014.19 1014.55 1014.87 1015.03 1015.15 1015.43 1015.75 1015.87 1016.07 1016.39 1016.59 1016.79 1017.31 1017.87 1018.15 1018.31 1018.39 1018.55 1018.71 1018.75 1018.63 1018.71 1018.79 1018.63 1018.71 1018.87 1018.95 1019.03 1019.11
Wind_Speed
12 12 14 12 11 11 10 9 10 9 8 9 8 8 10 8 10 9 7 8 8 5 9 8 6 9 6 6 5 6 7 7 11 9 9 8 9 14 17 17 18 17 17 18 18 17 17 16 15 13 12 11 10 9 8 8 7 7 8 8 9 9 9 10 11 12 13 13 14 16 17 18 19 20
11 11 11 11 11 11 11 10 9 8 9 9 9 8 8 7 10 9 10 7 8 4 8 8 4 6 7 6 5 5 6 12 14 11 11 11 10 17 19 18 17 14 16 17 17 18 17 16 15 14 13 12 10 9 8 8 7 8 8 8 9 9 9 10 11 12 12 13 14 15 17 18 19 20
11 12 13 12 12 11 11 10 9 8 8 8 8 8 6 8 9 10 9 11 4 6 5 7 7 5 7 6 6 5 6 11 14 11 11 12 13 16 16 17 14 14 17 17 17 17 17 17 16 14 13 12 11 10 9 8 8 8 8 8 8 8 9 9 11 12 12 13 14 16 17 18 19 20
11 12 13 12 12 11 9 9 10 10 9 8 8 8 8 8 8 8 8 10 8 3 3 5 6 7 8 7 7 6 5 10 15 10 10 11 12 11 10 16 16 15 16 16 15 16 16 16 16 15 14 12 11 10 9 8 8 8 7 7 7 8 8 10 10 11 12 13 14 15 16 18 19 20
12 13 13 12 12 11 11 9 8 9 10 9 9 9 9 10 9 9 9 10 9 2 3 2 2 4 8 4 6 8 7 9 9 9 8 9 9 9 9 11 16 16 15 14 15 16 15 14 14 14 13 12 11 10 9 8 7 7 6 6 7 7 9 10 10 11 12 13 14 15 16 17 18 19
10 11 12 12 11 11 11 10 10 9 10 10 10 9 9 10 9 9 9 9 8 8 2 2 2 3 3 5 6 10 10 9 7 9 8 7 9 9 9 9 10 16 14 14 16 16 15 13 12 11 11 11 10 9 8 8 7 7 6 6 7 8 9 9 10 10 11 12 13 15 16 17 18 19
11 11 11 12 10 8 10 10 11 10 10 10 11 11 9 11 10 9 9 8 8 8 5 5 6 5 4 6 7 9 8 7 8 9 8 8 7 6 8 7 7 14 13 15 15 14 13 12 12 11 11 10 9 9 9 8 8 7 7 6 6 7 8 9 9 10 10 11 13 14 15 16 17 18
12 13 11 11 11 10 11 10 10 10 10 10 10 11 10 10 10 9 8 9 8 7 9 4 6 5 7 2 4 5 5 7 7 7 4 4 6 6 5 7 6 11 16 14 13 13 13 13 13 13 13 12 11 10 9 8 8 8 7 6 7 8 8 8 8 9 10 11 12 13 14 16 17 18
13 13 13 11 11 11 12 11 11 10 12 10 10 10 9 9 8 8 9 10 9 8 8 4 0 3 2 2 3 6 7 5 5 4 6 5 6 5 3 4 4 9 16 14 13 12 13 13 13 13 13 12 11 10 9 8 9 8 7 7 7 7 7 8 8 8 10 11 11 12 14 15 16 17
12 12 12 11 11 12 12 11 11 11 12 11 11 10 9 8 8 9 8 8 7 8 6 8 4 3 6 3 2 5 5 8 6 5 2 0 4 6 6 5 3 3 5 6 7 8 10 13 14 13 12 12 11 11 9 9 10 9 8 8 7 7 7 8 8 8 9 10 11 12 14 15 16 17
12 12 12 12 12 13 13 13 12 11 11 11 11 11 10 9 8 8 8 7 7 7 6 4 5 7 4 4 4 3 3 4 6 8 6 5 6 6 7 6 4 3 4 5 8 8 8 8 7 10 12 11 11 11 10 10 11 10 9 8 8 8 8 8 8 8 9 9 11 12 13 14 16 17
11 12 12 12 12 13 12 12 11 11 11 10 10 10 9 9 9 9 7 7 7 6 6 7 7 5 5 4 3 5 5 5 2 6 7 10 9 9 7 7 7 4 6 5 5 4 6 6 8 9 10 11 11 11 10 11 10 10 9 9 8 8 8 8 8 9 9 10 11 12 13 14 15 17
12 11 12 12 12 13 15 18 16 14 13 11 10 9 8 9 9 8 7 7 6 5 6 4 2 5 5 6 7 7 8 12 12 9 8 7 4 4 4 5 6 7 7 7 6 6 6 6 6 5 4 6 9 9 11 8 12 12 11 10 9 9 9 8 8 8 9 10 11 12 14 15 15 16
12 12 11 12 16 16 16 16 17 17 17 17 14 10 10 10 9 8 8 7 7 7 8 8 7 7 8 9 10 10 10 6 4 7 8 8 4 5 4 4 6 6 6 6 7 6 7 7 5 6 6 6 8 6 6 6 6 9 11 10 9 9 8 8 9 9 9 10 11 12 14 15 15 16
11 10 10 9 12 14 16 16 19 18 19 19 19 17 15 14 13 10 9 8 9 8 8 8 8 9 9 9 9 10 8 7 8 6 7 7 5 7 8 8 3 8 9 8 6 6 6 7 7 6 5 5 6 6 6 10 13 11 10 10 9 9 8 9 9 9 9 10 11 13 13 14 15 16
10 10 10 10 10 10 10 10 10 13 16 16 16 16 15 16 17 16 14 10 7 7 7 7 9 9 10 8 9 9 8 9 7 6 7 9 10 9 9 7 5 5 12 9 7 6 4 6 6 5 5 5 6 6 9 12 12 12 10 9 9 9 8 9 9 9 9 10 11 13 13 14 15 16
10 9 8 8 7 8 12 10 9 9 11 14 16 16 15 16 17 16 16 15 14 11 10 10 9 10 9 9 10 11 12 8 8 7 7 7 8 8 8 8 4 3 10 6 6 7 4 7 6 6 4 5 4 6 11 13 13 12 11 10 10 9 8 8 8 8 9 10 11 12 13 14 15 16
10 10 10 10 9 7 8 8 9 8 8 8 8 8 8 8 11 13 14 14 14 13 12 11 12 11 10 12 11 10 10 11 11 10 10 9 8 9 9 2 2 3 7 10 6 4 4 5 5 5 4 5 4 4 8 13 13 12 11 10 10 8 7 7 7 8 9 10 11 12 13 14 14 15
9 10 10 10 9 9 9 9 11 10 9 9 9 9 8 9 9 10 10 10 9 9 8 10 11 8 9 9 6 10 11 13 11 12 11 12 10 4 5 5 4 2 2 4 5 6 3 5 4 4 5 4 4 3 8 14 13 12 11 10 10 9 7 6 5 7 9 9 10 12 12 13 14 15
9 9 9 9 10 9 10 12 16 14 10 9 9 9 8 7 6 7 8 10 9 8 8 7 7 7 8 9 8 11 12 9 6 4 4 6 5 6 5 6 3 2 3 3 4 3 2 4 5 4 4 5 4 4 3 11 13 11 10 10 10 8 6 4 5 6 7 9 11 12 12 12 14 15
9 9 9 8 9 9 9 13 17 17 14 8 10 9 9 7 7 7 5 7 10 11 11 9 7 7 9 13 13 16 17 12 9 7 6 7 8 7 8 6 5 6 5 5 4 1 4 4 4 4 3 3 4 4 4 3 9 10 9 10 10 8 5 4 4 5 7 9 10 11 12 13 13 15
8 9 13 12 10 10 10 12 17 18 15 10 10 9 9 9 9 8 5 4 4 5 6 7 7 7 8 11 14 16 17 17 14 11 11 9 9 9 8 8 6 3 6 8 6 3 3 5 4 5 2 2 1 3 4 3 3 7 8 11 10 7 4 2 2 4 7 9 9 10 12 12 12 7
7 7 9 14 13 11 12 15 16 17 15 11 11 11 10 11 12 11 10 9 8 6 5 5 6 4 7 8 8 11 18 18 15 11 8 8 10 10 8 7 4 2 6 8 9 8 4 8 5 5 4 2 1 1 2 3 3 4 3 3 3 5 4 2 2 4 6 7 9 10 11 12 11 3
6 7 7 9 15 16 14 16 18 18 18 12 9 9 12 12 14 8 10 11 11 11 11 8 7 6 5 4 5 7 11 12 12 9 5 7 9 8 8 8 8 6 3 6 14 9 3 5 6 5 1 3 3 2 2 3 3 2 4 4 3 4 5 3 3 4 5 7 9 10 10 11 10 3
9 8 9 8 11 15 14 14 16 18 20 16 11 12 12 14 9 13 11 11 10 7 7 6 6 6 5 5 5 6 7 8 8 7 6 5 7 7 7 7 8 8 2 6 17 9 5 6 5 4 0 2 3 4 3 3 3 2 3 3 3 3 3 1 1 1 4 7 8 9 9 10 10 7
9 10 8 8 9 13 14 13 15 17 18 20 10 12 13 9 13 14 9 10 9 7 7 6 6 6 7 6 6 6 7 7 8 7 5 3 4 1 1 3 6 7 5 5 18 7 6 5 7 7 3 3 3 5 4 3 2 2 3 2 3 2 2 1 1 1 1 1 2 5 7 10 8 10
11 8 9 8 12 15 16 16 17 17 18 16 13 15 14 11 13 11 7 8 9 8 8 8 8 8 8 8 8 7 7 7 7 5 5 4 5 5 4 5 3 2 2 8 11 3 3 3 6 9 7 4 5 3 3 4 2 3 2 3 3 2 3 3 1 1 1 1 2 7 7 8 8 10
9 8 7 7 13 15 16 16 15 15 15 12 16 15 14 13 12 7 7 8 9 9 9 9 9 9 8 7 7 7 7 7 7 7 7 6 6 6 6 6 7 5 5 6 6 2 4 5 5 2 6 8 7 6 4 3 5 5 5 4 3 3 4 3 0 0 1 1 1 3 3 3 4 4
7 7 12 14 16 17 17 18 16 13 14 16 14 15 16 15 8 8 8 9 9 9 11 11 9 8 9 8 6 6 8 10 11 9 7 7 7 8 9 8 7 7 5 4 4 3 3 6 6 4 4 2 5 3 5 4 4 4 5 6 3 4 3 5 4 2 0 1 1 2 3 2 3 3
13 12 12 13 15 14 13 10 8 8 9 13 13 12 13 9 9 9 9 9 11 11 10 10 10 9 7 6 8 10 10 9 9 8 8 8 6 6 7 7 7 6 6 6 5 5 5 4 5 5 6 5 4 4 3 6 3 4 4 3 3 5 4 3 2 0 0 0 1 2 4 2 3 1
9 8 8 7 9 7 11 12 10 9 9 9 10 8 9 9 9 9 10 11 11 10 9 9 8 6 7 7 7 7 8 9 7 7 9 8 7 6 6 8 6 5 5 6 6 5 5 5 4 4 7 5 5 4 3 3 5 5 4 4 5 3 3 4 4 2 2 1 1 5 3 0 2 3
5 4 3 4 4 4 4 4 3 4 4 6 7 8 8 8 7 8 8 6 6 7 7 7 7 9 7 6 6 7 8 8 8 8 8 8 8 6 7 7 6 5 5 4 5 6 6 5 4 5 5 4 4 3 2 3 3 4 4 4 2 1 5 4 2 3 2 1 2 1 2 1 0 2
3 3 4 5 6 6 8 8 7 6 6 6 7 7 6 7 7 7 8 10 9 7 7 9 10 10 7 7 9 9 6 8 8 8 7 7 8 6 5 6 8 8 8 6 4 4 4 5 7 7 6 6 4 5 5 3 2 3 4 3 5 3 4 4 4 2 2 1 1 1 1 2 1 0
7 7 8 7 8 8 9 9 9 9 8 8 8 7 7 6 7 8 8 8 8 7 8 9 11 11 10 7 8 7 7 7 8 8 8 8 7 8 7 7 7 6 7 7 6 5 4 4 5 6 6 5 3 2 1 2 3 4 4 4 4 3 4 5 3 2 0 0 0 1 2 4 2 2
10 9 8 8 8 10 10 10 11 11 10 11 10 10 10 9 9 8 8 8 7 8 8 8 10 10 11 10 7 8 7 10 10 8 7 7 7 7 7 7 8 8 8 8 7 6 6 6 6 5 3 3 2 1 4 2 0 4 4 3 3 5 5 3 4 2 1 0 0 1 2 1 2 3
11 8 9 10 10 10 11 12 10 11 12 11 12 11 10 11 10 10 10 9 8 8 8 9 10 11 10 9 9 7 7 11 11 10 9 8 8 7 6 6 8 8 8 8 8 7 7 6 7 7 6 4 4 2 0 5 4 0 3 3 3 5 3 3 2 3 1 1 1 1 1 1 3 4
10 9 10 11 11 11 13 11 12 11 10 11 11 12 12 12 11 11 10 9 9 9 10 11 11 10 11 11 9 9 7 9 11 10 9 8 8 7 7 6 7 8 8 7 7 7 7 7 6 7 8 7 6 6 3 1 4 5 1 4 4 4 5 5 4 3 3 4 1 1 1 1 2 4
13 12 12 13 13 13 12 11 10 10 11 11 11 11 11 10 9 10 9 9 11 10 10 11 10 9 11 10 11 7 6 7 10 9 9 9 9 8 8 8 8 7 8 8 8 7 6 7 7 6 7 8 7 7 5 2 1 3 6 2 5 4 4 4 5 5 3 2 5 1 1 1 3 3
13 13 14 13 12 11 12 12 11 12 11 10 11 11 10 9 8 8 9 10 9 10 10 10 11 11 13 13 12 8 10 12 11 10 10 9 9 9 8 8 8 7 9 8 7 7 6 6 6 6 6 7 7 5 7 8 3 4 6 8 4 5 5 5 3 5 6 3 2 1 1 4 4 5
13 11 11 11 11 10 11 10 10 10 11 11 11 9 10 11 11 11 10 10 10 10 11 11 13 9 11 12 10 10 10 10 11 10 10 9 9 8 9 8 9 9 9 8 8 7 6 6 6 6 3 5 6 6 8 7 5 3 3 6 8 4 2 3 3 5 3 4 1 1 0 0 1 2
11 12 12 10 9 10 10 10 10 10 11 11 10 10 10 9 9 10 11 11 11 11 12 12 12 12 12 11 12 12 12 10 9 9 9 9 9 8 10 10 9 9 10 9 8 8 7 3 6 11 10 7 6 7 7 5 4 4 3 3 7 6 5 6 4 3 4 3 2 3 2 2 1 2
11 12 12 10 10 10 9 10 10 10 10 10 11 10 10 10 9 10 10 11 12 12 12 14 14 12 10 11 11 11 11 12 11 10 10 10 10 9 10 9 9 9 9 10 9 7 6 6 9 8 7 7 5 5 4 6 6 7 5 3 2 4 5 5 7 7 6 4 2 2 2 3 1 4
11 11 11 10 9 8 8 8 8 9 8 8 8 9 9 10 9 11 10 11 13 10 7 6 10 11 12 11 10 10 10 11 11 11 11 10 11 11 10 8 8 8 8 8 7 8 6 6 7 7 5 4 3 3 6 6 5 6 5 5 4 3 3 5 6 5 5 6 4 3 1 2 3 1
10 11 11 10 10 10 9 8 9 8 8 8 8 9 10 10 11 12 12 12 13 11 8 8 11 10 12 10 9 9 8 9 10 12 11 10 10 9 9 9 9 8 8 9 8 7 6 6 5 6 6 5 4 5 6 6 6 6 5 5 4 4 4 3 2 4 4 5 6 5 5 5 4 2
10 10 10 10 10 10 9 8 9 9 9 9 9 10 10 10 10 10 11 12 12 11 13 13 10 7 10 11 11 11 9 8 9 9 10 10 9 9 8 9 9 9 8 8 10 9 7 6 5 4 5 4 3 4 5 4 5 6 4 4 4 4 3 2 1 1 3 0 3 7 7 6 5 3
Wind_Direction
227 227 227 230 232 232 235 234 229 232 230 235 232 225 232 229 244 239 229 215 243 193 193 227 203 199 193 194 190 184 192 162 148 167 179 180 177 194 195 199 202 205 203 202 201 203 211 214 218 221 225 225 228 239 252 261 264 272 283 290 296 302 310 313 314 316 318 319 319 322 323 324 325 327
230 229 227 227 233 232 233 234 236 230 232 234 232 231 228 223 237 238 248 246 195 211 190 207 203 177 187 179 165 171 174 156 157 169 180 189 186 188 195 198 202 198 200 203 203 204 209 212 215 220 223 224 227 236 249 257 263 272 280 287 295 302 308 313 313 312 315 317 321 323 323 324 327 327
229 226 225 223 228 226 228 231 232 235 230 231 234 235 226 230 231 243 246 262 193 191 183 201 206 158 176 164 158 157 172 166 167 173 186 191 192 180 193 195 199 197 202 203 202 205 207 210 214 219 222 222 223 232 242 249 259 269 275 284 295 303 307 307 307 310 316 320 322 323 324 326 327 328
223 228 226 221 224 222 226 222 223 227 229 229 232 231 232 231 233 236 241 246 250 174 193 163 180 146 151 151 155 161 145 164 169 182 190 192 181 172 187 193 193 196 200 199 200 204 207 211 215 219 220 220 223 228 238 244 251 261 270 282 291 298 302 301 305 313 318 323 323 323 324 326 327 328
218 221 226 223 221 219 223 215 216 223 225 224 227 230 233 235 230 230 239 247 256 200 27 88 115 115 132 142 156 151 156 166 181 179 187 182 181 175 178 185 193 194 196 196 196 201 206 210 213 216 219 221 221 224 234 241 249 260 265 275 284 291 294 299 308 315 322 322 322 322 324 326 327 329
219 217 221 223 219 216 220 214 217 216 221 221 226 225 224 231 228 222 231 238 239 234 137 95 54 100 166 145 172 164 165 183 177 178 180 186 189 185 175 177 188 191 193 197 197 201 204 203 207 214 216 217 214 215 226 234 242 247 254 262 272 281 289 299 307 315 319 320 321 321 323 326 328 329
219 217 215 218 217 213 217 216 219 216 219 217 222 225 220 226 221 215 218 224 228 228 219 168 164 184 192 170 188 184 183 173 174 174 184 185 193 196 180 168 167 187 190 195 197 202 203 198 201 204 209 212 211 213 220 227 235 238 244 253 263 274 286 296 304 311 317 318 317 320 323 326 328 327
216 220 219 217 212 211 216 214 216 217 219 218 221 222 221 224 221 218 215 217 233 227 223 204 186 189 165 167 160 163 151 154 171 184 177 182 197 191 173 161 151 176 183 192 196 201 200 197 202 206 208 209 210 214 216 223 231 232 235 243 256 269 282 289 300 307 311 313 315 318 322 325 327 326
217 218 219 215 209 208 217 215 218 216 220 220 221 222 221 221 219 219 214 219 219 219 215 163 297 146 96 58 124 154 149 148 154 153 177 193 198 194 193 156 141 157 180 187 192 199 199 203 207 207 207 208 210 211 216 223 228 230 231 237 251 266 274 285 295 303 306 308 311 315 321 323 324 325
217 218 218 214 209 210 214 219 219 218 220 219 222 222 220 218 214 217 218 212 210 209 194 161 149 193 170 141 163 178 158 154 141 143 121 125 217 199 201 207 168 144 164 176 185 192 200 205 211 211 210 209 211 212 213 221 227 229 230 235 249 260 270 279 290 297 300 302 308 314 319 321 323 325
221 221 220 216 213 215 216 218 217 218 220 215 221 218 220 214 208 213 213 201 203 203 178 177 177 166 182 150 148 167 144 150 163 160 161 208 213 220 207 199 187 171 167 182 185 187 190 193 203 209 209 213 215 211 214 221 226 226 228 237 247 256 267 277 285 290 294 300 306 314 317 320 322 324
223 224 221 220 216 216 217 217 219 215 217 213 220 216 216 211 209 212 207 204 204 203 193 185 181 170 154 133 92 124 140 145 200 200 186 198 199 208 208 211 184 175 181 185 187 159 140 152 182 195 208 217 219 214 214 221 222 223 228 236 245 253 262 271 279 284 290 298 306 313 317 319 323 325
228 226 223 221 218 217 218 215 214 213 212 210 218 215 204 207 202 206 202 197 188 196 188 187 105 145 156 169 149 161 179 192 200 184 191 220 203 188 195 219 203 185 186 195 188 186 177 166 175 175 192 209 213 219 213 211 218 224 231 233 239 248 259 268 276 281 288 300 309 315 318 320 322 325
227 225 223 222 219 217 217 217 218 217 215 215 214 210 197 201 201 199 193 188 184 178 187 194 169 178 197 184 189 186 198 190 145 153 184 204 173 150 205 229 214 196 183 190 204 197 176 180 185 182 202 192 190 195 198 200 201 218 223 226 232 244 257 268 273 280 293 305 314 317 317 320 323 325
226 226 225 227 219 219 220 219 218 217 218 219 220 214 195 192 189 188 189 193 180 181 196 192 187 198 200 198 187 201 181 185 189 175 177 188 166 185 182 215 189 192 186 199 197 204 175 169 191 189 195 175 172 188 195 198 206 209 210 211 221 239 253 264 274 287 301 311 316 318 319 321 323 324
226 223 222 221 217 214 211 212 219 223 225 222 217 211 203 199 198 188 181 181 187 189 190 191 202 193 205 189 180 191 177 187 181 178 173 185 189 193 206 212 207 190 176 185 193 200 149 171 187 197 192 177 183 187 194 202 198 195 192 202 218 234 249 263 278 294 307 314 317 318 320 321 322 323
224 216 217 227 228 223 209 212 213 212 219 220 215 211 205 202 200 202 200 188 184 183 190 195 200 200 191 190 200 191 193 167 173 161 181 191 199 204 210 219 202 147 177 170 192 203 173 173 180 207 187 172 179 178 191 193 188 186 193 201 215 225 243 262 283 300 312 316 318 318 320 322 321 323
226 221 220 220 219 214 212 209 208 210 211 203 204 208 206 201 207 208 205 202 197 185 189 190 203 205 185 200 198 184 156 162 181 176 195 188 192 201 213 216 68 102 174 183 165 202 165 183 164 197 184 161 155 154 177 182 181 186 189 202 211 219 237 262 288 306 315 318 318 318 320 320 321 322
229 222 221 222 222 210 208 204 199 201 201 194 195 193 203 204 192 192 197 200 198 197 199 201 208 196 195 202 166 158 175 186 189 187 187 185 188 157 75 68 86 92 209 190 158 203 143 168 167 183 155 134 141 144 181 187 183 182 190 200 206 212 233 261 293 311 316 317 316 318 319 321 323 323
229 227 223 220 217 210 208 204 198 199 190 190 188 190 195 201 192 200 208 202 199 192 194 199 198 194 189 183 165 163 173 179 154 115 87 106 125 147 171 193 140 175 193 240 200 168 140 192 161 149 117 136 137 138 140 184 178 184 192 201 201 207 224 256 297 314 316 315 317 316 319 322 325 326
230 223 216 212 214 212 215 203 197 198 187 188 185 189 192 192 186 206 197 189 192 192 195 196 178 171 180 178 162 163 168 168 156 135 137 170 159 169 189 199 166 201 165 220 220 219 140 198 169 124 136 139 144 151 156 155 187 190 198 202 199 202 218 253 304 316 313 316 315 315 319 325 330 330
233 224 212 212 212 210 212 201 201 197 185 185 185 185 184 185 197 205 178 155 166 171 183 186 173 165 161 163 160 165 167 161 159 161 187 178 163 187 190 196 186 151 172 203 177 206 173 159 176 121 105 78 131 140 129 129 174 199 203 196 191 196 212 235 317 312 311 314 312 314 323 328 335 331
234 231 220 217 220 216 208 194 196 196 191 186 181 183 177 192 202 200 168 172 174 175 168 190 168 178 172 164 161 166 165 166 175 187 180 155 175 186 190 187 142 145 231 196 174 184 166 154 186 148 130 162 96 88 125 148 170 178 164 145 153 193 193 223 293 291 303 308 309 317 325 331 339 326
231 228 229 224 223 223 213 200 195 193 192 188 186 177 189 193 210 166 171 190 187 187 190 184 176 173 168 167 157 155 165 173 182 187 171 172 181 187 186 189 188 198 182 162 173 189 152 163 165 208 191 136 186 182 156 165 153 146 117 123 139 172 180 219 259 268 278 297 308 316 324 329 341 329
235 228 224 226 220 218 216 208 201 195 193 192 186 193 198 203 182 162 182 186 177 174 174 163 165 159 163 167 165 161 168 174 181 184 184 173 190 188 191 189 198 221 172 188 178 182 163 167 152 155 259 45 101 134 159 155 152 150 133 121 139 148 140 174 176 247 279 302 311 318 323 327 335 339
225 224 213 219 207 212 218 211 205 205 198 194 190 207 217 195 158 171 173 166 168 164 164 162 167 169 168 170 171 171 172 174 176 179 173 133 158 98 83 174 194 215 206 189 181 178 129 160 164 153 160 131 134 124 135 173 154 141 111 132 145 149 131 166 219 215 223 267 291 304 312 322 334 340
227 220 216 206 190 201 210 212 210 210 207 198 204 200 200 185 169 158 157 157 163 167 169 168 180 181 178 175 176 174 175 170 165 158 120 96 91 89 71 57 55 50 114 149 175 160 130 120 156 163 162 155 128 137 139 144 165 141 154 169 170 163 176 165 194 185 271 272 272 304 324 330 340 343
223 218 209 197 188 197 204 210 215 218 210 206 204 195 190 168 160 157 155 165 171 168 169 179 185 188 187 177 173 178 169 156 137 112 104 88 86 92 75 57 49 45 85 131 141 57 110 131 155 158 150 157 154 159 168 102 113 159 167 169 172 180 162 149 142 195 239 290 290 312 315 326 326 342
235 218 199 192 192 198 198 199 206 215 217 217 213 195 176 164 165 169 167 169 167 175 186 189 187 186 188 183 166 131 117 109 96 98 86 87 88 92 86 73 59 50 52 62 57 43 90 139 145 132 118 118 130 125 123 156 149 163 154 148 166 167 178 146 167 193 227 290 290 318 294 307 307 335
241 231 213 203 199 201 203 201 199 203 209 212 206 195 180 177 178 175 175 177 180 188 185 186 187 183 164 144 131 126 129 133 141 134 128 126 124 123 117 95 63 45 37 38 45 45 53 86 122 122 100 64 78 109 115 126 129 130 133 146 120 125 121 131 134 84 101 25 318 288 289 271 292 310
240 235 221 216 207 198 194 195 199 201 189 189 195 193 190 195 190 187 187 186 185 182 182 183 182 158 130 102 120 137 145 144 144 142 141 139 147 141 131 118 113 89 43 34 38 35 48 61 68 92 113 103 66 82 80 92 122 132 153 144 141 159 171 162 149 130 75 359 310 278 258 338 342 335
231 218 173 154 134 134 136 172 172 195 192 200 196 196 196 200 197 193 184 183 204 202 184 163 133 109 129 138 134 134 140 146 145 148 148 149 149 151 140 123 128 119 103 70 52 38 45 44 54 60 80 104 124 117 82 90 124 134 136 131 121 109 122 122 115 98 77 33 311 312 321 245 148 319
161 172 187 181 169 165 172 177 188 186 190 201 203 205 204 202 197 190 189 194 192 182 158 156 149 151 140 138 151 146 129 144 149 152 143 145 146 152 158 143 140 146 139 130 109 78 64 60 53 63 62 49 63 114 131 123 177 153 144 152 137 160 126 108 106 73 3 354 6 357 295 311 145 205
198 200 203 199 186 182 185 179 188 190 188 192 195 201 200 203 204 204 202 198 188 181 180 160 158 163 161 147 153 147 135 131 148 151 146 150 153 156 165 148 148 145 137 136 139 136 116 92 86 73 69 68 49 41 86 138 158 155 154 141 145 135 123 107 90 116 54 227 142 356 1 323 324 87
210 207 207 206 204 204 195 197 197 190 192 195 189 190 190 197 200 203 205 203 189 184 179 167 167 166 165 161 154 150 141 146 147 147 144 145 156 164 164 150 147 149 145 141 145 145 137 135 123 108 93 116 94 323 269 264 132 149 134 157 131 130 103 105 122 121 113 291 108 46 327 341 357 337
219 208 209 209 210 206 206 207 197 196 198 194 192 189 188 199 196 195 202 197 190 186 177 172 168 168 170 163 158 138 134 144 146 150 151 156 159 159 159 150 141 142 142 148 147 148 149 150 153 147 142 155 160 163 317 215 206 14 162 146 114 117 110 108 120 138 159 355 55 88 6 348 308 314
218 213 214 216 215 209 215 208 201 203 196 194 193 194 196 195 193 196 195 178 185 187 187 177 175 172 161 161 142 150 138 146 153 156 155 154 156 156 152 145 140 141 142 142 144 148 153 159 171 163 147 151 165 178 159 20 235 216 92 134 137 132 132 143 153 173 160 118 21 78 125 281 280 300
220 212 213 217 215 212 213 210 202 201 199 197 196 196 198 197 186 187 178 180 188 184 182 178 160 165 147 148 136 144 130 130 144 150 157 155 158 162 161 153 149 146 133 132 144 154 161 163 171 182 163 165 162 160 158 178 123 217 176 135 132 137 147 153 158 130 121 123 140 190 46 341 293 294
231 222 217 217 216 212 209 209 204 206 198 195 199 197 189 184 181 171 178 189 188 185 179 173 170 166 161 155 159 144 145 155 160 161 159 162 162 157 153 151 143 140 131 136 145 154 163 165 178 180 178 172 171 168 150 151 161 139 165 157 126 139 161 144 135 115 128 96 37 355 259 210 233 231
236 242 238 227 220 215 216 209 207 205 198 198 196 191 187 189 183 178 178 182 183 184 180 162 157 156 155 163 156 150 158 162 160 157 158 156 159 155 151 152 149 145 140 141 149 159 166 171 169 176 141 102 100 104 89 97 98 96 117 171 160 143 137 98 118 116 87 85 93 93 310 353 10 297
231 235 240 237 232 221 217 212 209 204 202 194 190 186 185 186 181 186 182 177 177 176 175 158 155 169 168 168 164 165 162 162 157 155 150 150 150 151 147 144 144 152 147 150 151 157 163 154 113 101 105 114 110 89 86 99 131 149 159 168 173 154 127 124 115 105 125 137 153 179 159 155 126 2
222 232 237 234 236 231 221 218 208 206 203 193 187 180 180 179 184 174 176 176 176 181 173 161 163 166 157 166 166 165 163 161 157 154 154 150 148 143 147 150 150 153 152 154 157 139 109 115 112 106 106 112 122 116 141 153 148 143 138 111 110 155 158 128 131 135 130 127 90 83 41 6 30 107
219 226 231 230 233 233 225 222 214 208 203 191 186 175 173 175 170 172 178 180 185 176 161 151 168 170 154 166 167 166 160 157 154 152 150 152 149 150 153 156 151 146 138 122 106 115 126 113 115 120 125 117 130 128 137 147 142 120 134 136 143 110 125 137 141 135 144 158 173 166 155 142 123 83
221 220 225 224 225 224 220 213 210 207 196 189 180 175 178 176 179 183 181 180 180 170 150 152 169 169 170 166 162 160 160 154 150 150 152 151 148 146 146 140 136 133 125 120 123 121 123 129 126 133 132 140 142 135 145 127 127 138 130 123 118 120 147 125 164 190 200 202 208 219 230 237 250 258
228 221 219 218 221 220 216 211 205 201 197 185 180 181 178 179 183 182 184 181 178 150 156 169 169 152 163 163 162 163 159 140 139 144 139 138 141 141 136 137 137 134 129 130 129 130 129 128 132 122 112 118 114 120 125 127 126 113 105 113 137 143 117 85 82 86 127 349 220 203 219 229 252 283